Regional Weather Roundup
Issued by NWS

Home | Current Version | Previous Version | Graphics & Text | Print | Product List | Glossary On
Versions: 1 2 3 4 5 6 7 8 9 10 11 12 13 14 15 16 17 18 19 20 21 22 23 24 25 26 27 28 29 30 31 32 33 34 35 36 37 38 39 40 41 42 43 44 45 46 47 48 49 50
135
ASUS43 KDTX 200310
RWRMI
MICHIGAN HOURLY REGIONAL WEATHER ROUNDUP
NATIONAL WEATHER SERVICE DETROIT/PONTIAC MI
ISSUED BY NATIONAL WEATHER SERVICE GRAND RAPIDS MI
1100 PM EDT SAT AUG 19 2017

NOTE: "FAIR" INDICATES FEW OR NO CLOUDS BELOW 12,000 FEET WITH NO
SIGNIFICANT WEATHER AND/OR OBSTRUCTION TO VISIBILITY.

MIZ047>049-052>055-059>063-066>070-074>076-081>083-200400-
SOUTHEAST LOWER MICHIGAN

CITY           SKY/WX    TMP DP  RH WIND       PRES   REMARKS
ADRIAN         CLEAR     63  60  90 CALM      30.01R
ALMA           CLEAR     65  60  83 SW6       29.98R
ANN ARBOR      FOG       61  60  97 CALM      29.99R VSB 1/2
BAD AXE        CLEAR     63  58  84 CALM      29.96R
DETROIT CITY   CLEAR     69  58  67 CALM      29.98R
DETROIT        PTCLDY    68  60  75 CALM      30.00R
FLINT          CLEAR     66  59  78 SW7       29.98R
GROSSE ILE     CLEAR     68  59  73 CALM      29.98R
HILLSDALE      MOCLDY    61  57  88 CALM      30.01S
HOWELL         CLEAR     65  59  80 SW5       30.00R

CITY           SKY/WX    TMP DP  RH WIND       PRES   REMARKS
JACKSON        CLEAR     62  60  93 SW5       30.01R
LANSING        CLEAR     68  59  73 W6        30.00R
MASON          CLEAR     67  59  75 CALM      30.00R
MONROE         CLEAR     63  61  93 CALM      29.99R
MT. CLEMENS    PTCLDY    64  59  85 SW3       29.96R
PONTIAC        CLEAR     67  60  78 CALM      29.98R
PORT HOPE        N/A     67  60  78 SW6       29.92R
PORT HURON     CLEAR     61  57  88 CALM      29.98R
TRI CITIES     CLEAR     66  61  84 W8        29.97R
YPSILANTI      CLEAR     64  60  87 CALM      30.00R
$$
MIZ043>046-050>051-056>058-064>065-071>073-077>080-200400-
SOUTHWEST LOWER MICHIGAN

CITY           SKY/WX    TMP DP  RH WIND       PRES   REMARKS
BATTLE CREEK   CLEAR     64  60  87 W3        30.01R
BENTON HARBOR  CLEAR     60  57  89 CALM      29.99R
BIG RAPIDS     CLEAR     62  58  88 CALM      29.97S
COLDWATER      CLEAR     63  60  89 CALM      30.01R
HOLLAND        CLEAR     62  60  93 CALM      29.99R FOG
GRAND RAPIDS   CLEAR     66  61  84 SW6       29.99R
KALAMAZOO      CLEAR     66  56  70 CALM      30.02R
MARSHALL       CLEAR     62  61  98 CALM      30.00R
MOUNT PLEASANT CLEAR     67  60  76 SW5       29.97R
MUSKEGON       CLEAR     67  64  90 S3        29.98R
STURGIS        CLEAR     63  59  88 CALM      30.00S
$$
MIZ016>042-200400-
NORTHERN LOWER MICHIGAN

CITY           SKY/WX    TMP DP  RH WIND       PRES   REMARKS
ALPENA         CLEAR     63  62  97 CALM      29.93R
BEAVER ISLAND  CLEAR     67  61  81 S6        29.91R
BELLAIRE       CLOUDY    65  64  94 CALM      29.93R FOG
CADILLAC       CLEAR     65  61  88 SW6       29.97S
CHARLEVOIX     CLOUDY    65  65  99 CALM      29.96R
GAYLORD        CLOUDY    65  60  84 W5        29.96R
HOUGHTON LAKE  CLEAR     68  61  78 W5        29.97R
MANISTEE       CLEAR     66  62  87 SW3       29.95R
OSCODA         CLEAR     62  60  93 CALM      29.92R
PELLSTON       CLEAR     65  62  90 CALM      29.92R
TRAVERSE CITY  CLEAR     69  62  78 MISG      29.91S
LUDINGTON      CLEAR     68  63  84 SW12      29.95R
$$
MIZ007>008-015-200400-
EASTERN UPPER MICHIGAN

CITY           SKY/WX    TMP DP  RH WIND       PRES   REMARKS
KINROSS        CLEAR     63  62  97 SW5       29.90S
MACKINAC ISLAN CLEAR     65  65 100 SW5       29.90S
NEWBERRY       CLEAR     61  60  97 SW5       29.90R
S. S. MARIE    CLEAR     62  59  90 CALM      29.89R
$$
MIZ004>006-011>014-085-200400-
CENTRAL UPPER MICHIGAN

CITY           SKY/WX    TMP DP  RH WIND       PRES   REMARKS
MANISTIQUE     CLEAR     59  53  81 CALM      29.89R
ESCANABA       CLEAR     63  63 100 CALM      29.89R FOG
MENOMINEE      CLEAR     70  62  76 W3        29.91R
SAWYER-GWINN   CLEAR     64  61  89 CALM      29.91S
$$
MIZ001>003-009>011-084-200400-
WESTERN UPPER MICHIGAN

CITY           SKY/WX    TMP DP  RH WIND       PRES   REMARKS
IRON MOUNTAIN  PTCLDY    61  57  87 CALM      29.91R
HOUGHTON         N/A    N/A N/A N/A MISG      29.86S
COPPER HARBOR    N/A     66  55  67 SW6       29.85R
IRONWOOD       CLEAR     62  60  93 CALM      29.91R
$$

ABBREVIATIONS USED IN REMARKS
   TC - TEMPERATURE IN CELSIUS
  WCI - WIND CHILL INDEX
   HX - HEAT INDEX
  VSB - VISIBILITY





USA.gov is the U.S. government's official web portal to all federal, state and local government web resources and services.